| time (UTC) | temp F | wind direction | speed MPH | gust MPH | rain 1hr in | rain 24hr in | rain mn in | humidity % | barometer mb |
| 20260503040016 | 42 | 158 | 5.0 | 9.0 | 0.00 | 0.00 | 0.00 | 52 | 999.2 |
| 20260503035017 | 42 | 135 | 5.0 | 10.0 | 0.00 | 0.00 | 0.00 | 52 | 999.5 |
| 20260503034017 | 42 | 135 | 5.0 | 8.0 | 0.00 | 0.00 | 0.00 | 51 | 999.6 |
| 20260503033017 | 42 | 135 | 4.0 | 9.0 | 0.00 | 0.00 | 0.00 | 50 | 999.7 |
| 20260503032018 | 42 | 158 | 5.0 | 8.0 | 0.00 | 0.00 | 0.00 | 50 | 999.8 |
| 20260503031016 | 42 | 158 | 5.0 | 8.0 | 0.00 | 0.00 | 0.00 | 50 | 1000.0 |
| 20260503030017 | 42 | 135 | 5.0 | 9.0 | 0.00 | 0.00 | 0.00 | 50 | 1000.2 |
| 20260503025516 | 42 | 135 | 5.0 | 8.0 | 0.00 | 0.00 | 0.00 | 50 | 1000.3 |
| 20260503024537 | 42 | 158 | 4.0 | 9.0 | 0.00 | 0.00 | 0.00 | 48 | 1000.3 |
| 20260503023516 | 42 | 158 | 5.0 | 9.0 | 0.00 | 0.00 | 0.00 | 48 | 1000.5 |
| 20260503022517 | 42 | 158 | 5.0 | 9.0 | 0.00 | 0.00 | 0.00 | 48 | 1000.6 |
| 20260503021516 | 42 | 135 | 4.0 | 8.0 | 0.00 | 0.00 | 0.00 | 46 | 1000.6 |
| 20260503020517 | 42 | 158 | 5.0 | 8.0 | 0.00 | 0.00 | 0.00 | 46 | 1000.7 |
| 20260503015517 | 42 | 135 | 4.0 | 9.0 | 0.00 | 0.00 | 0.00 | 46 | 1000.8 |
| 20260503014517 | 42 | 135 | 5.0 | 12.0 | 0.00 | 0.00 | 0.00 | 45 | 1000.8 |
| 20260503013517 | 42 | 158 | 5.0 | 8.0 | 0.00 | 0.00 | 0.00 | 45 | 1001.0 |
| 20260503012517 | 43 | 158 | 4.0 | 7.0 | 0.00 | 0.00 | 0.00 | 44 | 1001.0 |
| 20260503011517 | 43 | 113 | 4.0 | 7.0 | 0.00 | 0.00 | 0.00 | 43 | 1001.0 |
| 20260503010517 | 43 | 135 | 5.0 | 8.0 | 0.00 | 0.00 | 0.00 | 43 | 1001.1 |
| 20260503005517 | 44 | 135 | 4.0 | 8.0 | 0.00 | 0.00 | 0.00 | 43 | 1001.4 |
| 20260503004537 | 44 | 135 | 4.0 | 7.0 | 0.00 | 0.00 | 0.00 | 44 | 1001.4 |
| 20260503003516 | 45 | 135 | 3.0 | 7.0 | 0.00 | 0.00 | 0.00 | 43 | 1001.5 |
| 20260503002516 | 46 | 135 | 4.0 | 11.0 | 0.00 | 0.00 | 0.00 | 41 | 1001.5 |
| 20260503001516 | 47 | 158 | 4.0 | 7.0 | 0.00 | 0.00 | 0.00 | 40 | 1001.6 |
| 20260503000516 | 49 | 158 | 4.0 | 9.0 | 0.00 | 0.00 | 0.00 | 38 | 1001.7 |
| 20260502235516 | 51 | 90 | 1.0 | 5.0 | 0.00 | 0.00 | 0.00 | 34 | 1001.8 |
| 20260502234536 | 52 | 0.0 | 3.0 | 0.00 | 0.00 | 0.00 | 28 | 1001.7 | |
| 20260502233516 | 53 | 0.0 | 3.0 | 0.00 | 0.00 | 0.00 | 26 | 1001.9 | |
| 20260502232516 | 53 | 248 | 2.0 | 4.0 | 0.00 | 0.00 | 0.00 | 26 | 1002.0 |
| 20260502231516 | 54 | 248 | 1.0 | 3.0 | 0.00 | 0.00 | 0.00 | 25 | 1002.1 |
| 20260502230536 | 54 | 270 | 3.0 | 9.0 | 0.00 | 0.00 | 0.00 | 24 | 1002.2 |
| 20260502225516 | 55 | 315 | 1.0 | 5.0 | 0.00 | 0.00 | 0.00 | 26 | 1002.3 |
| 20260502224516 | 54 | 248 | 3.0 | 7.0 | 0.00 | 0.00 | 0.00 | 25 | 1002.3 |
| 20260502223536 | 54 | 248 | 2.0 | 5.0 | 0.00 | 0.00 | 0.00 | 25 | 1002.4 |
| 20260502222517 | 54 | 270 | 3.0 | 7.0 | 0.00 | 0.00 | 0.00 | 25 | 1002.6 |
| 20260502221517 | 54 | 45 | 2.0 | 5.0 | 0.00 | 0.00 | 0.00 | 25 | 1002.7 |
| 20260502220517 | 54 | 315 | 2.0 | 4.0 | 0.00 | 0.00 | 0.00 | 25 | 1002.8 |
| 20260502215517 | 53 | 293 | 2.0 | 5.0 | 0.00 | 0.00 | 0.00 | 26 | 1002.7 |
| 20260502214517 | 52 | 315 | 2.0 | 5.0 | 0.00 | 0.00 | 0.00 | 26 | 1002.7 |
| 20260502213516 | 52 | 293 | 2.0 | 5.0 | 0.00 | 0.00 | 0.00 | 29 | 1002.9 |
| 20260502212516 | 52 | 248 | 3.0 | 6.0 | 0.00 | 0.00 | 0.00 | 28 | 1003.0 |
| 20260502211537 | 52 | 248 | 4.0 | 8.0 | 0.00 | 0.00 | 0.00 | 27 | 1003.3 |
| 20260502210516 | 52 | 270 | 5.0 | 10.0 | 0.00 | 0.00 | 0.00 | 27 | 1003.4 |
| 20260502205516 | 52 | 270 | 3.0 | 8.0 | 0.00 | 0.00 | 0.00 | 28 | 1003.5 |
| 20260502204516 | 52 | 315 | 4.0 | 7.0 | 0.00 | 0.00 | 0.00 | 28 | 1003.7 |
| 20260502203516 | 51 | 248 | 5.0 | 10.0 | 0.00 | 0.00 | 0.00 | 30 | 1003.8 |
| 20260502202516 | 51 | 270 | 5.0 | 9.0 | 0.00 | 0.00 | 0.00 | 28 | 1004.0 |
| 20260502201516 | 50 | 270 | 4.0 | 8.0 | 0.00 | 0.00 | 0.00 | 30 | 1004.1 |
| 20260502200517 | 50 | 270 | 4.0 | 6.0 | 0.00 | 0.00 | 0.00 | 30 | 1004.3 |
| 20260502195516 | 50 | 248 | 7.0 | 12.0 | 0.00 | 0.00 | 0.00 | 30 | 1004.3 |
| 20260502194516 | 51 | 248 | 6.0 | 16.0 | 0.00 | 0.00 | 0.00 | 28 | 1004.5 |
| 20260502193517 | 51 | 270 | 5.0 | 11.0 | 0.00 | 0.00 | 0.00 | 28 | 1004.6 |
| 20260502192516 | 52 | 270 | 6.0 | 12.0 | 0.00 | 0.00 | 0.00 | 29 | 1004.8 |
| 20260502191516 | 52 | 270 | 5.0 | 12.0 | 0.00 | 0.00 | 0.00 | 29 | 1004.9 |
| 20260502190516 | 51 | 315 | 5.0 | 15.0 | 0.00 | 0.00 | 0.00 | 30 | 1005.2 |
| 20260502185517 | 52 | 270 | 7.0 | 11.0 | 0.00 | 0.00 | 0.00 | 30 | 1005.2 |
| 20260502184517 | 52 | 270 | 6.0 | 11.0 | 0.00 | 0.00 | 0.00 | 31 | 1005.3 |
| 20260502183516 | 51 | 248 | 6.0 | 12.0 | 0.00 | 0.00 | 0.00 | 32 | 1005.4 |
| 20260502182537 | 51 | 293 | 3.0 | 8.0 | 0.00 | 0.00 | 0.00 | 33 | 1005.5 |
| 20260502181537 | 50 | 270 | 7.0 | 14.0 | 0.00 | 0.00 | 0.00 | 32 | 1005.4 |
| 20260502180516 | 52 | 293 | 3.0 | 9.0 | 0.00 | 0.00 | 0.00 | 36 | 1005.7 |
| 20260502170516 | 50 | 23 | 2.0 | 5.0 | 0.00 | 0.00 | 0.00 | 38 | 1006.1 |
| 20260502163516 | 49 | 315 | 3.0 | 6.0 | 0.00 | 0.00 | 0.00 | 38 | 1006.5 |
| 20260502162516 | 49 | 270 | 5.0 | 11.0 | 0.00 | 0.00 | 0.00 | 38 | 1006.5 |
| 20260502161537 | 48 | 315 | 2.0 | 5.0 | 0.00 | 0.00 | 0.00 | 39 | 1006.6 |
| 20260502160536 | 48 | 270 | 6.0 | 11.0 | 0.00 | 0.00 | 0.00 | 39 | 1006.7 |
| 20260502151516 | 48 | 315 | 3.0 | 5.0 | 0.00 | 0.00 | 0.00 | 40 | 1007.0 |
| 20260502150536 | 47 | 315 | 2.0 | 6.0 | 0.00 | 0.00 | 0.00 | 39 | 1007.0 |
| 20260502130517 | 41 | 248 | 3.0 | 6.0 | 0.00 | 0.00 | 0.00 | 49 | 1007.9 |
| 20260502123516 | 39 | 248 | 3.0 | 6.0 | 0.00 | 0.00 | 0.00 | 53 | 1008.1 |
| 20260502122516 | 38 | 248 | 2.0 | 5.0 | 0.00 | 0.00 | 0.00 | 56 | 1008.1 |
| 20260502121516 | 37 | 248 | 1.0 | 4.0 | 0.00 | 0.00 | 0.00 | 59 | 1008.2 |
| 20260502120556 | 35 | 0.0 | 1.0 | 0.00 | 0.00 | 0.00 | 59 | 1008.1 | |
| 20260502115516 | 34 | 0.0 | 1.0 | 0.00 | 0.00 | 0.00 | 59 | 1008.2 | |
| 20260502114516 | 33 | 0.0 | 0.0 | 0.00 | 0.00 | 0.00 | 60 | 1008.1 | |
| 20260502113516 | 32 | 0.0 | 0.0 | 0.00 | 0.00 | 0.00 | 61 | 1008.2 | |
| 20260502112516 | 31 | 0.0 | 0.0 | 0.00 | 0.00 | 0.00 | 63 | 1008.2 | |
| 20260502111516 | 31 | 0.0 | 0.0 | 0.00 | 0.00 | 0.00 | 64 | 1008.1 | |
| 20260502110516 | 31 | 0.0 | 0.0 | 0.00 | 0.00 | 0.00 | 64 | 1008.1 | |
| 20260502105516 | 30 | 0.0 | 0.0 | 0.00 | 0.00 | 0.00 | 65 | 1008.1 | |
| 20260502104516 | 30 | 0.0 | 0.0 | 0.00 | 0.00 | 0.00 | 66 | 1008.1 | |
| 20260502103536 | 30 | 0.0 | 0.0 | 0.00 | 0.00 | 0.00 | 66 | 1008.1 | |
| 20260502102516 | 30 | 0.0 | 0.0 | 0.00 | 0.00 | 0.00 | 65 | 1008.1 | |
| 20260502101516 | 30 | 0.0 | 0.0 | 0.00 | 0.00 | 0.00 | 65 | 1008.1 | |
| 20260502100516 | 30 | 0.0 | 0.0 | 0.00 | 0.00 | 0.00 | 65 | 1008.1 | |
| 20260502091517 | 30 | 0.0 | 0.0 | 0.00 | 0.00 | 0.00 | 65 | 1008.2 | |
| 20260502091016 | 30 | 0.0 | 0.0 | 0.00 | 0.00 | 0.00 | 65 | 1008.2 | |
| 20260502071016 | 29 | 0.0 | 0.0 | 0.00 | 0.00 | 0.00 | 66 | 1008.5 | |
| 20260502070016 | 30 | 0.0 | 0.0 | 0.00 | 0.00 | 0.00 | 65 | 1008.5 | |
| 20260502065016 | 30 | 0.0 | 1.0 | 0.00 | 0.00 | 0.00 | 66 | 1008.7 | |
| 20260502064056 | 30 | 0.0 | 0.0 | 0.00 | 0.00 | 0.00 | 64 | 1008.7 | |
| 20260502063016 | 30 | 0.0 | 2.0 | 0.00 | 0.00 | 0.00 | 64 | 1008.9 | |
| 20260502062016 | 30 | 0.0 | 1.0 | 0.00 | 0.00 | 0.00 | 65 | 1008.9 | |
| 20260502061036 | 29 | 0.0 | 0.0 | 0.00 | 0.00 | 0.00 | 66 | 1008.9 | |
| 20260502060016 | 29 | 0.0 | 0.0 | 0.00 | 0.00 | 0.00 | 66 | 1008.9 | |
| 20260502055016 | 29 | 0.0 | 1.0 | 0.00 | 0.00 | 0.00 | 68 | 1009.0 | |
| 20260502054016 | 29 | 0.0 | 0.0 | 0.00 | 0.00 | 0.00 | 68 | 1009.1 | |
| 20260502053016 | 29 | 0.0 | 0.0 | 0.00 | 0.00 | 0.00 | 68 | 1009.0 | |
| 20260502052016 | 29 | 0.0 | 0.0 | 0.00 | 0.00 | 0.00 | 70 | 1009.1 | |
| 20260502051056 | 29 | 0.0 | 0.0 | 0.00 | 0.00 | 0.00 | 70 | 1009.1 | |
| 20260502050016 | 29 | 0.0 | 1.0 | 0.00 | 0.00 | 0.00 | 72 | 1009.1 | |
| 20260502045016 | 29 | 0.0 | 0.0 | 0.00 | 0.00 | 0.00 | 72 | 1009.1 | |
| 20260502044016 | 29 | 0.0 | 0.0 | 0.00 | 0.00 | 0.00 | 72 | 1009.2 | |
| 20260502043016 | 29 | 0.0 | 0.0 | 0.00 | 0.00 | 0.00 | 73 | 1009.1 | |
| 20260502042016 | 29 | 0.0 | 0.0 | 0.00 | 0.00 | 0.00 | 74 | 1009.1 | |
| 20260502041016 | 29 | 0.0 | 0.0 | 0.00 | 0.00 | 0.00 | 72 | 1009.1 |